World > North America > United States > Utah > Gold Hill

Hourly Gold Hill, UT Regional Weather

Feedback E-mail the Weather

Quick WX

Gold Hill, UT Weather Maps

°F °C°F °C
Gold Hill Weather Map
UTC Time: 8/14/2022, 06:18
Your Time:

Gold Hill, UT Regional Weather

Expires:202208140700;;066800
ASUS45 KSLC 140610
RWRUT 

UTAH REGIONAL WEATHER ROUNDUP
NATIONAL WEATHER SERVICE SALT LAKE CITY UT
1200 AM MDT SUN AUG 14 2022


UTZ101>105-107>111-140700-

NORTHERN UTAH
  
CITY           SKY/WX    TMP DP  RH WIND       PRES   REMARKS
BRIGHAM CITY   MOCLDY    72  53  52 MISG      30.13S                  
HILL AFB       CLOUDY    74  58  57 S18       30.17R                  
LOGAN          MOCLDY    69  63  81 S3        30.14S                  
OGDEN          MOCLDY    77  58  51 S18G24    30.16R                  
SALT LAKE CITY CLOUDY    75  59  57 S12       30.15R                  
TOOELE VALLEY  LGT RAIN  68  63  83 S14       30.19R                  
WENDOVER       MOCLDY    72  60  66 W9        30.17F                  
HEBER CITY     CLOUDY    63  59  88 CALM      30.25S                  
WEST JORDAN    CLOUDY    67  64  90 S7        30.19R                  

$$


SKY/WX - Weather  TMP - Temperature  DP - Dew Point  RH - Humidity
WIND - Wind Direction/Speed PRES - Barometric Pressure VSB - Visibility
WCI - Wind Chill Index E13G22 Wind - East Wind 13 mph/Gusts of 22 mph

Trending Headlines

Gold Hill Radar Loop



Gold Hill Quick Facts


National Two Day Weather Forecast


E-mail the Gold Hill Weather Forecast

Voice your opinion or tell us about page issues...